<?xml version="1.0" encoding="UTF-8" standalone="no" ?>
<gpx xmlns="http://www.topografix.com/GPX/1/1" xmlns:xsi="http://www.w3.org/2001/XMLSchema-instance" xsi:schemaLocation="http://www.topografix.com/GPX/1/1 http://www.topografix.com/GPX/1/1/gpx.xsd" version="1.1" creator="VisuGPX - https://www.visugpx.com">
  <metadata>
    <name>Lorleau 2018 L'après-midi rallongée</name>
    <desc><![CDATA[Sortie de l'après-midi rallongée des Sangliers à Lorleau (près Lyons-la-Forêt).]]></desc>
  </metadata>
  <trk>
    <name><![CDATA[9224358-Lorleau AM 2]]></name>
    <trkseg>
      <trkpt lat="49.41298" lon="1.49883">
        <ele>98</ele>
        <time>2018-10-16T10:43:33Z</time>
      </trkpt>
      <trkpt lat="49.41351" lon="1.49886">
        <ele>99</ele>
        <time>2018-10-16T10:44:33Z</time>
      </trkpt>
      <trkpt lat="49.41363" lon="1.49926">
        <ele>98</ele>
        <time>2018-10-16T10:45:33Z</time>
      </trkpt>
      <trkpt lat="49.41396" lon="1.49978">
        <ele>98</ele>
        <time>2018-10-16T10:46:33Z</time>
      </trkpt>
      <trkpt lat="49.41461" lon="1.50263">
        <ele>98</ele>
        <time>2018-10-16T10:47:33Z</time>
      </trkpt>
      <trkpt lat="49.41448" lon="1.50414">
        <ele>100</ele>
        <time>2018-10-16T10:48:33Z</time>
      </trkpt>
      <trkpt lat="49.41469" lon="1.50511">
        <ele>100</ele>
        <time>2018-10-16T10:49:33Z</time>
      </trkpt>
      <trkpt lat="49.41512" lon="1.50547">
        <ele>101</ele>
        <time>2018-10-16T10:50:33Z</time>
      </trkpt>
      <trkpt lat="49.41657" lon="1.50455">
        <ele>103</ele>
        <time>2018-10-16T10:51:33Z</time>
      </trkpt>
      <trkpt lat="49.41615" lon="1.50585">
        <ele>107</ele>
        <time>2018-10-16T10:52:33Z</time>
      </trkpt>
      <trkpt lat="49.416" lon="1.50804">
        <ele>114</ele>
        <time>2018-10-16T10:53:33Z</time>
      </trkpt>
      <trkpt lat="49.4168" lon="1.50626">
        <ele>120</ele>
        <time>2018-10-16T10:54:33Z</time>
      </trkpt>
      <trkpt lat="49.41749" lon="1.50563">
        <ele>119</ele>
        <time>2018-10-16T10:55:33Z</time>
      </trkpt>
      <trkpt lat="49.4171" lon="1.50718">
        <ele>134</ele>
        <time>2018-10-16T10:56:33Z</time>
      </trkpt>
      <trkpt lat="49.41755" lon="1.50701">
        <ele>141</ele>
        <time>2018-10-16T10:57:33Z</time>
      </trkpt>
      <trkpt lat="49.41811" lon="1.50644">
        <ele>140</ele>
        <time>2018-10-16T10:58:33Z</time>
      </trkpt>
      <trkpt lat="49.41966" lon="1.50636">
        <ele>153</ele>
        <time>2018-10-16T10:59:33Z</time>
      </trkpt>
      <trkpt lat="49.42191" lon="1.50473">
        <ele>150</ele>
        <time>2018-10-16T11:00:33Z</time>
      </trkpt>
      <trkpt lat="49.42327" lon="1.50621">
        <ele>154</ele>
        <time>2018-10-16T11:01:33Z</time>
      </trkpt>
      <trkpt lat="49.42503" lon="1.51059">
        <ele>157</ele>
        <time>2018-10-16T11:02:33Z</time>
      </trkpt>
      <trkpt lat="49.42485" lon="1.50756">
        <ele>135</ele>
        <time>2018-10-16T11:03:33Z</time>
      </trkpt>
      <trkpt lat="49.42595" lon="1.50667">
        <ele>133</ele>
        <time>2018-10-16T11:04:33Z</time>
      </trkpt>
      <trkpt lat="49.42549" lon="1.50311">
        <ele>154</ele>
        <time>2018-10-16T11:05:33Z</time>
      </trkpt>
      <trkpt lat="49.42485" lon="1.50141">
        <ele>149</ele>
        <time>2018-10-16T11:06:33Z</time>
      </trkpt>
      <trkpt lat="49.42694" lon="1.50004">
        <ele>159</ele>
        <time>2018-10-16T11:07:33Z</time>
      </trkpt>
      <trkpt lat="49.42767" lon="1.49974">
        <ele>158</ele>
        <time>2018-10-16T11:08:33Z</time>
      </trkpt>
      <trkpt lat="49.42856" lon="1.49976">
        <ele>153</ele>
        <time>2018-10-16T11:09:33Z</time>
      </trkpt>
      <trkpt lat="49.42855" lon="1.49972">
        <ele>153</ele>
        <time>2018-10-16T11:10:33Z</time>
      </trkpt>
      <trkpt lat="49.42874" lon="1.4989">
        <ele>139</ele>
        <time>2018-10-16T11:11:33Z</time>
      </trkpt>
      <trkpt lat="49.42954" lon="1.49897">
        <ele>136</ele>
        <time>2018-10-16T11:12:33Z</time>
      </trkpt>
      <trkpt lat="49.42957" lon="1.4985">
        <ele>128</ele>
        <time>2018-10-16T11:13:33Z</time>
      </trkpt>
      <trkpt lat="49.43139" lon="1.49935">
        <ele>120</ele>
        <time>2018-10-16T11:14:33Z</time>
      </trkpt>
      <trkpt lat="49.43144" lon="1.50046">
        <ele>122</ele>
        <time>2018-10-16T11:15:33Z</time>
      </trkpt>
      <trkpt lat="49.43185" lon="1.501">
        <ele>119</ele>
        <time>2018-10-16T11:16:33Z</time>
      </trkpt>
      <trkpt lat="49.43411" lon="1.50087">
        <ele>119</ele>
        <time>2018-10-16T11:17:33Z</time>
      </trkpt>
      <trkpt lat="49.43818" lon="1.50358">
        <ele>129</ele>
        <time>2018-10-16T11:18:33Z</time>
      </trkpt>
      <trkpt lat="49.43897" lon="1.50245">
        <ele>135</ele>
        <time>2018-10-16T11:19:33Z</time>
      </trkpt>
      <trkpt lat="49.44045" lon="1.50161">
        <ele>146</ele>
        <time>2018-10-16T11:20:33Z</time>
      </trkpt>
      <trkpt lat="49.44286" lon="1.50139">
        <ele>151</ele>
        <time>2018-10-16T11:21:33Z</time>
      </trkpt>
      <trkpt lat="49.44568" lon="1.50443">
        <ele>158</ele>
        <time>2018-10-16T11:22:33Z</time>
      </trkpt>
      <trkpt lat="49.44557" lon="1.50499">
        <ele>162</ele>
        <time>2018-10-16T11:23:33Z</time>
      </trkpt>
      <trkpt lat="49.44463" lon="1.50461">
        <ele>166</ele>
        <time>2018-10-16T11:24:33Z</time>
      </trkpt>
      <trkpt lat="49.44501" lon="1.5058">
        <ele>179</ele>
        <time>2018-10-16T11:25:33Z</time>
      </trkpt>
      <trkpt lat="49.44488" lon="1.5073">
        <ele>182</ele>
        <time>2018-10-16T11:26:33Z</time>
      </trkpt>
      <trkpt lat="49.44428" lon="1.50909">
        <ele>178</ele>
        <time>2018-10-16T11:27:33Z</time>
      </trkpt>
      <trkpt lat="49.44183" lon="1.51381">
        <ele>170</ele>
        <time>2018-10-16T11:28:33Z</time>
      </trkpt>
      <trkpt lat="49.44196" lon="1.51509">
        <ele>165</ele>
        <time>2018-10-16T11:29:33Z</time>
      </trkpt>
      <trkpt lat="49.44169" lon="1.51516">
        <ele>167</ele>
        <time>2018-10-16T11:30:33Z</time>
      </trkpt>
      <trkpt lat="49.44116" lon="1.51577">
        <ele>164</ele>
        <time>2018-10-16T11:31:33Z</time>
      </trkpt>
      <trkpt lat="49.4406" lon="1.51585">
        <ele>161</ele>
        <time>2018-10-16T11:32:33Z</time>
      </trkpt>
      <trkpt lat="49.44" lon="1.51595">
        <ele>153</ele>
        <time>2018-10-16T11:33:33Z</time>
      </trkpt>
      <trkpt lat="49.43929" lon="1.51641">
        <ele>149</ele>
        <time>2018-10-16T11:34:33Z</time>
      </trkpt>
      <trkpt lat="49.44118" lon="1.51894">
        <ele>150</ele>
        <time>2018-10-16T11:35:33Z</time>
      </trkpt>
      <trkpt lat="49.43726" lon="1.5218">
        <ele>172</ele>
        <time>2018-10-16T11:36:33Z</time>
      </trkpt>
      <trkpt lat="49.43786" lon="1.5242">
        <ele>167</ele>
        <time>2018-10-16T11:37:33Z</time>
      </trkpt>
      <trkpt lat="49.43811" lon="1.5268">
        <ele>165</ele>
        <time>2018-10-16T11:38:33Z</time>
      </trkpt>
      <trkpt lat="49.43796" lon="1.52733">
        <ele>165</ele>
        <time>2018-10-16T11:39:33Z</time>
      </trkpt>
      <trkpt lat="49.43629" lon="1.52871">
        <ele>165</ele>
        <time>2018-10-16T11:40:33Z</time>
      </trkpt>
      <trkpt lat="49.43514" lon="1.52955">
        <ele>171</ele>
        <time>2018-10-16T11:41:33Z</time>
      </trkpt>
      <trkpt lat="49.43416" lon="1.52996">
        <ele>170</ele>
        <time>2018-10-16T11:42:33Z</time>
      </trkpt>
      <trkpt lat="49.43184" lon="1.53154">
        <ele>165</ele>
        <time>2018-10-16T11:43:33Z</time>
      </trkpt>
      <trkpt lat="49.43094" lon="1.53126">
        <ele>160</ele>
        <time>2018-10-16T11:44:33Z</time>
      </trkpt>
      <trkpt lat="49.4301" lon="1.53116">
        <ele>158</ele>
        <time>2018-10-16T11:45:33Z</time>
      </trkpt>
      <trkpt lat="49.4293" lon="1.53086">
        <ele>156</ele>
        <time>2018-10-16T11:46:33Z</time>
      </trkpt>
      <trkpt lat="49.42867" lon="1.5308">
        <ele>149</ele>
        <time>2018-10-16T11:47:33Z</time>
      </trkpt>
      <trkpt lat="49.42827" lon="1.53063">
        <ele>143</ele>
        <time>2018-10-16T11:48:33Z</time>
      </trkpt>
      <trkpt lat="49.42797" lon="1.53083">
        <ele>136</ele>
        <time>2018-10-16T11:49:33Z</time>
      </trkpt>
      <trkpt lat="49.42766" lon="1.53154">
        <ele>132</ele>
        <time>2018-10-16T11:50:33Z</time>
      </trkpt>
      <trkpt lat="49.42804" lon="1.53249">
        <ele>139</ele>
        <time>2018-10-16T11:51:33Z</time>
      </trkpt>
      <trkpt lat="49.42812" lon="1.5332">
        <ele>139</ele>
        <time>2018-10-16T11:52:33Z</time>
      </trkpt>
      <trkpt lat="49.42879" lon="1.53449">
        <ele>141</ele>
        <time>2018-10-16T11:53:33Z</time>
      </trkpt>
      <trkpt lat="49.42975" lon="1.53698">
        <ele>139</ele>
        <time>2018-10-16T11:54:33Z</time>
      </trkpt>
      <trkpt lat="49.43161" lon="1.53797">
        <ele>138</ele>
        <time>2018-10-16T11:55:33Z</time>
      </trkpt>
      <trkpt lat="49.43222" lon="1.53854">
        <ele>136</ele>
        <time>2018-10-16T11:56:33Z</time>
      </trkpt>
      <trkpt lat="49.43217" lon="1.53958">
        <ele>146</ele>
        <time>2018-10-16T11:57:33Z</time>
      </trkpt>
      <trkpt lat="49.43207" lon="1.54127">
        <ele>158</ele>
        <time>2018-10-16T11:58:33Z</time>
      </trkpt>
      <trkpt lat="49.43169" lon="1.54285">
        <ele>161</ele>
        <time>2018-10-16T11:59:33Z</time>
      </trkpt>
      <trkpt lat="49.43194" lon="1.54321">
        <ele>160</ele>
        <time>2018-10-16T12:00:33Z</time>
      </trkpt>
      <trkpt lat="49.43051" lon="1.54563">
        <ele>159</ele>
        <time>2018-10-16T12:01:33Z</time>
      </trkpt>
      <trkpt lat="49.42945" lon="1.54657">
        <ele>162</ele>
        <time>2018-10-16T12:02:33Z</time>
      </trkpt>
      <trkpt lat="49.43046" lon="1.55145">
        <ele>167</ele>
        <time>2018-10-16T12:03:33Z</time>
      </trkpt>
      <trkpt lat="49.43132" lon="1.55104">
        <ele>165</ele>
        <time>2018-10-16T12:04:33Z</time>
      </trkpt>
      <trkpt lat="49.43249" lon="1.55142">
        <ele>166</ele>
        <time>2018-10-16T12:05:33Z</time>
      </trkpt>
      <trkpt lat="49.43255" lon="1.55262">
        <ele>167</ele>
        <time>2018-10-16T12:06:33Z</time>
      </trkpt>
      <trkpt lat="49.43273" lon="1.55364">
        <ele>170</ele>
        <time>2018-10-16T12:07:33Z</time>
      </trkpt>
      <trkpt lat="49.43207" lon="1.55693">
        <ele>164</ele>
        <time>2018-10-16T12:08:33Z</time>
      </trkpt>
      <trkpt lat="49.43268" lon="1.55834">
        <ele>162</ele>
        <time>2018-10-16T12:09:33Z</time>
      </trkpt>
      <trkpt lat="49.43295" lon="1.55937">
        <ele>161</ele>
        <time>2018-10-16T12:10:33Z</time>
      </trkpt>
      <trkpt lat="49.43184" lon="1.56048">
        <ele>166</ele>
        <time>2018-10-16T12:11:33Z</time>
      </trkpt>
      <trkpt lat="49.43088" lon="1.56099">
        <ele>165</ele>
        <time>2018-10-16T12:12:33Z</time>
      </trkpt>
      <trkpt lat="49.43028" lon="1.56158">
        <ele>164</ele>
        <time>2018-10-16T12:13:33Z</time>
      </trkpt>
      <trkpt lat="49.42855" lon="1.56298">
        <ele>159</ele>
        <time>2018-10-16T12:14:33Z</time>
      </trkpt>
      <trkpt lat="49.42784" lon="1.56206">
        <ele>158</ele>
        <time>2018-10-16T12:15:33Z</time>
      </trkpt>
      <trkpt lat="49.42683" lon="1.56117">
        <ele>159</ele>
        <time>2018-10-16T12:16:33Z</time>
      </trkpt>
      <trkpt lat="49.42542" lon="1.55841">
        <ele>160</ele>
        <time>2018-10-16T12:17:33Z</time>
      </trkpt>
      <trkpt lat="49.42494" lon="1.55776">
        <ele>160</ele>
        <time>2018-10-16T12:18:33Z</time>
      </trkpt>
      <trkpt lat="49.42381" lon="1.55727">
        <ele>159</ele>
        <time>2018-10-16T12:19:33Z</time>
      </trkpt>
      <trkpt lat="49.42307" lon="1.55706">
        <ele>160</ele>
        <time>2018-10-16T12:20:33Z</time>
      </trkpt>
      <trkpt lat="49.42075" lon="1.55568">
        <ele>166</ele>
        <time>2018-10-16T12:21:33Z</time>
      </trkpt>
      <trkpt lat="49.42098" lon="1.5526">
        <ele>164</ele>
        <time>2018-10-16T12:22:33Z</time>
      </trkpt>
      <trkpt lat="49.42083" lon="1.54979">
        <ele>162</ele>
        <time>2018-10-16T12:23:33Z</time>
      </trkpt>
      <trkpt lat="49.42039" lon="1.54782">
        <ele>161</ele>
        <time>2018-10-16T12:24:33Z</time>
      </trkpt>
      <trkpt lat="49.41977" lon="1.5441">
        <ele>160</ele>
        <time>2018-10-16T12:25:33Z</time>
      </trkpt>
      <trkpt lat="49.41995" lon="1.53961">
        <ele>161</ele>
        <time>2018-10-16T12:26:33Z</time>
      </trkpt>
      <trkpt lat="49.41911" lon="1.53864">
        <ele>166</ele>
        <time>2018-10-16T12:27:33Z</time>
      </trkpt>
      <trkpt lat="49.41819" lon="1.53716">
        <ele>169</ele>
        <time>2018-10-16T12:28:33Z</time>
      </trkpt>
      <trkpt lat="49.4176" lon="1.53563">
        <ele>173</ele>
        <time>2018-10-16T12:29:33Z</time>
      </trkpt>
      <trkpt lat="49.41927" lon="1.53343">
        <ele>167</ele>
        <time>2018-10-16T12:30:33Z</time>
      </trkpt>
      <trkpt lat="49.41901" lon="1.53111">
        <ele>161</ele>
        <time>2018-10-16T12:31:33Z</time>
      </trkpt>
      <trkpt lat="49.41873" lon="1.53014">
        <ele>156</ele>
        <time>2018-10-16T12:32:33Z</time>
      </trkpt>
      <trkpt lat="49.41851" lon="1.52925">
        <ele>157</ele>
        <time>2018-10-16T12:33:33Z</time>
      </trkpt>
      <trkpt lat="49.41795" lon="1.52792">
        <ele>156</ele>
        <time>2018-10-16T12:34:33Z</time>
      </trkpt>
      <trkpt lat="49.4177" lon="1.52708">
        <ele>156</ele>
        <time>2018-10-16T12:35:33Z</time>
      </trkpt>
      <trkpt lat="49.41627" lon="1.52473">
        <ele>165</ele>
        <time>2018-10-16T12:36:33Z</time>
      </trkpt>
      <trkpt lat="49.41554" lon="1.52298">
        <ele>160</ele>
        <time>2018-10-16T12:37:33Z</time>
      </trkpt>
      <trkpt lat="49.41607" lon="1.52284">
        <ele>157</ele>
        <time>2018-10-16T12:38:33Z</time>
      </trkpt>
      <trkpt lat="49.4168" lon="1.5231">
        <ele>152</ele>
        <time>2018-10-16T12:39:33Z</time>
      </trkpt>
      <trkpt lat="49.41774" lon="1.52353">
        <ele>136</ele>
        <time>2018-10-16T12:40:33Z</time>
      </trkpt>
      <trkpt lat="49.41793" lon="1.52323">
        <ele>127</ele>
        <time>2018-10-16T12:41:33Z</time>
      </trkpt>
      <trkpt lat="49.41734" lon="1.52112">
        <ele>116</ele>
        <time>2018-10-16T12:42:33Z</time>
      </trkpt>
      <trkpt lat="49.41697" lon="1.51906">
        <ele>111</ele>
        <time>2018-10-16T12:43:33Z</time>
      </trkpt>
      <trkpt lat="49.41665" lon="1.51679">
        <ele>106</ele>
        <time>2018-10-16T12:44:33Z</time>
      </trkpt>
      <trkpt lat="49.41663" lon="1.51387">
        <ele>105</ele>
        <time>2018-10-16T12:45:33Z</time>
      </trkpt>
      <trkpt lat="49.41548" lon="1.50928">
        <ele>104</ele>
        <time>2018-10-16T12:46:33Z</time>
      </trkpt>
      <trkpt lat="49.41539" lon="1.50777">
        <ele>105</ele>
        <time>2018-10-16T12:47:33Z</time>
      </trkpt>
      <trkpt lat="49.41557" lon="1.50652">
        <ele>104</ele>
        <time>2018-10-16T12:48:33Z</time>
      </trkpt>
      <trkpt lat="49.41536" lon="1.50571">
        <ele>102</ele>
        <time>2018-10-16T12:49:33Z</time>
      </trkpt>
      <trkpt lat="49.41511" lon="1.5055">
        <ele>101</ele>
        <time>2018-10-16T12:50:33Z</time>
      </trkpt>
      <trkpt lat="49.41476" lon="1.50628">
        <ele>104</ele>
        <time>2018-10-16T12:51:33Z</time>
      </trkpt>
      <trkpt lat="49.41383" lon="1.5074">
        <ele>124</ele>
        <time>2018-10-16T12:52:33Z</time>
      </trkpt>
      <trkpt lat="49.41327" lon="1.50957">
        <ele>139</ele>
        <time>2018-10-16T12:53:33Z</time>
      </trkpt>
      <trkpt lat="49.41318" lon="1.51041">
        <ele>143</ele>
        <time>2018-10-16T12:54:33Z</time>
      </trkpt>
      <trkpt lat="49.41271" lon="1.51129">
        <ele>151</ele>
        <time>2018-10-16T12:55:33Z</time>
      </trkpt>
      <trkpt lat="49.41207" lon="1.50894">
        <ele>152</ele>
        <time>2018-10-16T12:56:33Z</time>
      </trkpt>
      <trkpt lat="49.41196" lon="1.50862">
        <ele>152</ele>
        <time>2018-10-16T12:57:33Z</time>
      </trkpt>
      <trkpt lat="49.41154" lon="1.50708">
        <ele>153</ele>
        <time>2018-10-16T12:58:33Z</time>
      </trkpt>
      <trkpt lat="49.41133" lon="1.50585">
        <ele>153</ele>
        <time>2018-10-16T12:59:33Z</time>
      </trkpt>
      <trkpt lat="49.41112" lon="1.50525">
        <ele>156</ele>
        <time>2018-10-16T13:00:33Z</time>
      </trkpt>
      <trkpt lat="49.41043" lon="1.50459">
        <ele>155</ele>
        <time>2018-10-16T13:01:33Z</time>
      </trkpt>
      <trkpt lat="49.40999" lon="1.50402">
        <ele>151</ele>
        <time>2018-10-16T13:02:33Z</time>
      </trkpt>
      <trkpt lat="49.40961" lon="1.50322">
        <ele>147</ele>
        <time>2018-10-16T13:03:33Z</time>
      </trkpt>
      <trkpt lat="49.40954" lon="1.50279">
        <ele>144</ele>
        <time>2018-10-16T13:04:33Z</time>
      </trkpt>
      <trkpt lat="49.40915" lon="1.50167">
        <ele>140</ele>
        <time>2018-10-16T13:05:33Z</time>
      </trkpt>
      <trkpt lat="49.40881" lon="1.50094">
        <ele>143</ele>
        <time>2018-10-16T13:06:33Z</time>
      </trkpt>
      <trkpt lat="49.40843" lon="1.49981">
        <ele>143</ele>
        <time>2018-10-16T13:07:33Z</time>
      </trkpt>
      <trkpt lat="49.40824" lon="1.49882">
        <ele>141</ele>
        <time>2018-10-16T13:08:33Z</time>
      </trkpt>
      <trkpt lat="49.40819" lon="1.49805">
        <ele>138</ele>
        <time>2018-10-16T13:09:33Z</time>
      </trkpt>
      <trkpt lat="49.40808" lon="1.49742">
        <ele>137</ele>
        <time>2018-10-16T13:10:33Z</time>
      </trkpt>
      <trkpt lat="49.408" lon="1.49678">
        <ele>135</ele>
        <time>2018-10-16T13:11:33Z</time>
      </trkpt>
      <trkpt lat="49.40775" lon="1.49586">
        <ele>137</ele>
        <time>2018-10-16T13:12:33Z</time>
      </trkpt>
      <trkpt lat="49.40695" lon="1.49353">
        <ele>136</ele>
        <time>2018-10-16T13:13:33Z</time>
      </trkpt>
      <trkpt lat="49.40614" lon="1.49192">
        <ele>126</ele>
        <time>2018-10-16T13:14:33Z</time>
      </trkpt>
      <trkpt lat="49.40519" lon="1.49047">
        <ele>107</ele>
        <time>2018-10-16T13:15:33Z</time>
      </trkpt>
      <trkpt lat="49.40499" lon="1.48943">
        <ele>97</ele>
        <time>2018-10-16T13:16:33Z</time>
      </trkpt>
      <trkpt lat="49.40496" lon="1.48891">
        <ele>93</ele>
        <time>2018-10-16T13:17:33Z</time>
      </trkpt>
      <trkpt lat="49.40449" lon="1.4916">
        <ele>110</ele>
        <time>2018-10-16T13:18:33Z</time>
      </trkpt>
      <trkpt lat="49.40427" lon="1.49205">
        <ele>111</ele>
        <time>2018-10-16T13:19:33Z</time>
      </trkpt>
      <trkpt lat="49.40358" lon="1.49282">
        <ele>113</ele>
        <time>2018-10-16T13:20:33Z</time>
      </trkpt>
      <trkpt lat="49.40296" lon="1.49316">
        <ele>111</ele>
        <time>2018-10-16T13:21:33Z</time>
      </trkpt>
      <trkpt lat="49.40285" lon="1.49384">
        <ele>113</ele>
        <time>2018-10-16T13:22:33Z</time>
      </trkpt>
      <trkpt lat="49.40353" lon="1.49548">
        <ele>121</ele>
        <time>2018-10-16T13:23:33Z</time>
      </trkpt>
      <trkpt lat="49.40352" lon="1.49673">
        <ele>124</ele>
        <time>2018-10-16T13:24:33Z</time>
      </trkpt>
      <trkpt lat="49.40331" lon="1.49741">
        <ele>124</ele>
        <time>2018-10-16T13:25:33Z</time>
      </trkpt>
      <trkpt lat="49.40146" lon="1.49976">
        <ele>133</ele>
        <time>2018-10-16T13:26:33Z</time>
      </trkpt>
      <trkpt lat="49.40121" lon="1.50053">
        <ele>139</ele>
        <time>2018-10-16T13:27:33Z</time>
      </trkpt>
      <trkpt lat="49.39989" lon="1.49969">
        <ele>150</ele>
        <time>2018-10-16T13:28:33Z</time>
      </trkpt>
      <trkpt lat="49.3999" lon="1.49902">
        <ele>150</ele>
        <time>2018-10-16T13:29:33Z</time>
      </trkpt>
      <trkpt lat="49.40141" lon="1.49573">
        <ele>136</ele>
        <time>2018-10-16T13:30:33Z</time>
      </trkpt>
      <trkpt lat="49.40145" lon="1.49445">
        <ele>125</ele>
        <time>2018-10-16T13:31:33Z</time>
      </trkpt>
      <trkpt lat="49.40037" lon="1.49438">
        <ele>144</ele>
        <time>2018-10-16T13:32:33Z</time>
      </trkpt>
      <trkpt lat="49.40042" lon="1.49246">
        <ele>143</ele>
        <time>2018-10-16T13:33:33Z</time>
      </trkpt>
      <trkpt lat="49.39995" lon="1.48991">
        <ele>152</ele>
        <time>2018-10-16T13:34:33Z</time>
      </trkpt>
      <trkpt lat="49.39891" lon="1.48978">
        <ele>154</ele>
        <time>2018-10-16T13:35:33Z</time>
      </trkpt>
      <trkpt lat="49.39884" lon="1.48871">
        <ele>153</ele>
        <time>2018-10-16T13:36:33Z</time>
      </trkpt>
      <trkpt lat="49.39837" lon="1.48762">
        <ele>157</ele>
        <time>2018-10-16T13:37:33Z</time>
      </trkpt>
      <trkpt lat="49.39846" lon="1.48654">
        <ele>147</ele>
        <time>2018-10-16T13:38:33Z</time>
      </trkpt>
      <trkpt lat="49.39944" lon="1.48435">
        <ele>124</ele>
        <time>2018-10-16T13:39:33Z</time>
      </trkpt>
      <trkpt lat="49.3999" lon="1.48356">
        <ele>120</ele>
        <time>2018-10-16T13:40:33Z</time>
      </trkpt>
      <trkpt lat="49.4003" lon="1.4821">
        <ele>111</ele>
        <time>2018-10-16T13:41:33Z</time>
      </trkpt>
      <trkpt lat="49.40022" lon="1.48113">
        <ele>107</ele>
        <time>2018-10-16T13:42:33Z</time>
      </trkpt>
      <trkpt lat="49.3997" lon="1.48011">
        <ele>105</ele>
        <time>2018-10-16T13:43:33Z</time>
      </trkpt>
      <trkpt lat="49.39972" lon="1.47853">
        <ele>102</ele>
        <time>2018-10-16T13:44:33Z</time>
      </trkpt>
      <trkpt lat="49.39955" lon="1.47832">
        <ele>103</ele>
        <time>2018-10-16T13:45:33Z</time>
      </trkpt>
      <trkpt lat="49.39895" lon="1.47885">
        <ele>109</ele>
        <time>2018-10-16T13:46:33Z</time>
      </trkpt>
      <trkpt lat="49.39706" lon="1.47877">
        <ele>135</ele>
        <time>2018-10-16T13:47:33Z</time>
      </trkpt>
      <trkpt lat="49.39454" lon="1.47539">
        <ele>159</ele>
        <time>2018-10-16T13:48:33Z</time>
      </trkpt>
      <trkpt lat="49.39205" lon="1.47341">
        <ele>162</ele>
        <time>2018-10-16T13:49:33Z</time>
      </trkpt>
      <trkpt lat="49.3918" lon="1.47294">
        <ele>163</ele>
        <time>2018-10-16T13:50:33Z</time>
      </trkpt>
      <trkpt lat="49.39131" lon="1.4712">
        <ele>166</ele>
        <time>2018-10-16T13:51:33Z</time>
      </trkpt>
      <trkpt lat="49.39099" lon="1.47026">
        <ele>164</ele>
        <time>2018-10-16T13:52:33Z</time>
      </trkpt>
      <trkpt lat="49.39099" lon="1.46943">
        <ele>165</ele>
        <time>2018-10-16T13:53:33Z</time>
      </trkpt>
      <trkpt lat="49.39117" lon="1.46886">
        <ele>164</ele>
        <time>2018-10-16T13:54:33Z</time>
      </trkpt>
      <trkpt lat="49.39099" lon="1.46627">
        <ele>165</ele>
        <time>2018-10-16T13:55:33Z</time>
      </trkpt>
      <trkpt lat="49.39061" lon="1.46528">
        <ele>168</ele>
        <time>2018-10-16T13:56:33Z</time>
      </trkpt>
      <trkpt lat="49.39042" lon="1.46424">
        <ele>169</ele>
        <time>2018-10-16T13:57:33Z</time>
      </trkpt>
      <trkpt lat="49.38971" lon="1.46343">
        <ele>177</ele>
        <time>2018-10-16T13:58:33Z</time>
      </trkpt>
      <trkpt lat="49.38918" lon="1.46386">
        <ele>182</ele>
        <time>2018-10-16T13:59:33Z</time>
      </trkpt>
      <trkpt lat="49.38632" lon="1.45713">
        <ele>163</ele>
        <time>2018-10-16T14:00:33Z</time>
      </trkpt>
      <trkpt lat="49.38714" lon="1.45513">
        <ele>146</ele>
        <time>2018-10-16T14:01:33Z</time>
      </trkpt>
      <trkpt lat="49.38738" lon="1.45392">
        <ele>139</ele>
        <time>2018-10-16T14:02:33Z</time>
      </trkpt>
      <trkpt lat="49.38747" lon="1.45244">
        <ele>134</ele>
        <time>2018-10-16T14:03:33Z</time>
      </trkpt>
      <trkpt lat="49.38785" lon="1.45278">
        <ele>123</ele>
        <time>2018-10-16T14:04:33Z</time>
      </trkpt>
      <trkpt lat="49.388" lon="1.45341">
        <ele>121</ele>
        <time>2018-10-16T14:05:33Z</time>
      </trkpt>
      <trkpt lat="49.38808" lon="1.45484">
        <ele>122</ele>
        <time>2018-10-16T14:06:33Z</time>
      </trkpt>
      <trkpt lat="49.38901" lon="1.45302">
        <ele>97</ele>
        <time>2018-10-16T14:07:33Z</time>
      </trkpt>
      <trkpt lat="49.38935" lon="1.4519">
        <ele>86</ele>
        <time>2018-10-16T14:08:33Z</time>
      </trkpt>
      <trkpt lat="49.39022" lon="1.45074">
        <ele>77</ele>
        <time>2018-10-16T14:09:33Z</time>
      </trkpt>
      <trkpt lat="49.39157" lon="1.44861">
        <ele>79</ele>
        <time>2018-10-16T14:10:33Z</time>
      </trkpt>
      <trkpt lat="49.39225" lon="1.44914">
        <ele>92</ele>
        <time>2018-10-16T14:11:33Z</time>
      </trkpt>
      <trkpt lat="49.39221" lon="1.44744">
        <ele>111</ele>
        <time>2018-10-16T14:12:33Z</time>
      </trkpt>
      <trkpt lat="49.39084" lon="1.44363">
        <ele>139</ele>
        <time>2018-10-16T14:13:33Z</time>
      </trkpt>
      <trkpt lat="49.39036" lon="1.44275">
        <ele>140</ele>
        <time>2018-10-16T14:14:33Z</time>
      </trkpt>
      <trkpt lat="49.39015" lon="1.44015">
        <ele>137</ele>
        <time>2018-10-16T14:15:33Z</time>
      </trkpt>
      <trkpt lat="49.39267" lon="1.44001">
        <ele>144</ele>
        <time>2018-10-16T14:16:33Z</time>
      </trkpt>
      <trkpt lat="49.39551" lon="1.43896">
        <ele>157</ele>
        <time>2018-10-16T14:17:33Z</time>
      </trkpt>
      <trkpt lat="49.39559" lon="1.44123">
        <ele>162</ele>
        <time>2018-10-16T14:18:33Z</time>
      </trkpt>
      <trkpt lat="49.39537" lon="1.44257">
        <ele>157</ele>
        <time>2018-10-16T14:19:33Z</time>
      </trkpt>
      <trkpt lat="49.39507" lon="1.44297">
        <ele>156</ele>
        <time>2018-10-16T14:20:33Z</time>
      </trkpt>
      <trkpt lat="49.39557" lon="1.44371">
        <ele>157</ele>
        <time>2018-10-16T14:21:33Z</time>
      </trkpt>
      <trkpt lat="49.39594" lon="1.44598">
        <ele>163</ele>
        <time>2018-10-16T14:22:33Z</time>
      </trkpt>
      <trkpt lat="49.39579" lon="1.44654">
        <ele>163</ele>
        <time>2018-10-16T14:23:33Z</time>
      </trkpt>
      <trkpt lat="49.39594" lon="1.44809">
        <ele>165</ele>
        <time>2018-10-16T14:24:33Z</time>
      </trkpt>
      <trkpt lat="49.39593" lon="1.45007">
        <ele>162</ele>
        <time>2018-10-16T14:25:33Z</time>
      </trkpt>
      <trkpt lat="49.39645" lon="1.45175">
        <ele>160</ele>
        <time>2018-10-16T14:26:33Z</time>
      </trkpt>
      <trkpt lat="49.39673" lon="1.45365">
        <ele>153</ele>
        <time>2018-10-16T14:27:33Z</time>
      </trkpt>
      <trkpt lat="49.39752" lon="1.45502">
        <ele>152</ele>
        <time>2018-10-16T14:28:33Z</time>
      </trkpt>
      <trkpt lat="49.39843" lon="1.45601">
        <ele>153</ele>
        <time>2018-10-16T14:29:33Z</time>
      </trkpt>
      <trkpt lat="49.39895" lon="1.45711">
        <ele>156</ele>
        <time>2018-10-16T14:30:33Z</time>
      </trkpt>
      <trkpt lat="49.39956" lon="1.45763">
        <ele>158</ele>
        <time>2018-10-16T14:31:33Z</time>
      </trkpt>
      <trkpt lat="49.40022" lon="1.45785">
        <ele>157</ele>
        <time>2018-10-16T14:32:33Z</time>
      </trkpt>
      <trkpt lat="49.40056" lon="1.45783">
        <ele>156</ele>
        <time>2018-10-16T14:33:33Z</time>
      </trkpt>
      <trkpt lat="49.3999" lon="1.45993">
        <ele>138</ele>
        <time>2018-10-16T14:34:33Z</time>
      </trkpt>
      <trkpt lat="49.39789" lon="1.46162">
        <ele>109</ele>
        <time>2018-10-16T14:35:33Z</time>
      </trkpt>
      <trkpt lat="49.39767" lon="1.46197">
        <ele>105</ele>
        <time>2018-10-16T14:36:33Z</time>
      </trkpt>
      <trkpt lat="49.3976" lon="1.4624">
        <ele>103</ele>
        <time>2018-10-16T14:37:33Z</time>
      </trkpt>
      <trkpt lat="49.39782" lon="1.46312">
        <ele>101</ele>
        <time>2018-10-16T14:38:33Z</time>
      </trkpt>
      <trkpt lat="49.39817" lon="1.46359">
        <ele>103</ele>
        <time>2018-10-16T14:39:33Z</time>
      </trkpt>
      <trkpt lat="49.3989" lon="1.46637">
        <ele>87</ele>
        <time>2018-10-16T14:40:33Z</time>
      </trkpt>
      <trkpt lat="49.4001" lon="1.46691">
        <ele>102</ele>
        <time>2018-10-16T14:41:33Z</time>
      </trkpt>
      <trkpt lat="49.4003" lon="1.4672">
        <ele>105</ele>
        <time>2018-10-16T14:42:33Z</time>
      </trkpt>
      <trkpt lat="49.4008" lon="1.46745">
        <ele>114</ele>
        <time>2018-10-16T14:43:33Z</time>
      </trkpt>
      <trkpt lat="49.40177" lon="1.46864">
        <ele>127</ele>
        <time>2018-10-16T14:44:33Z</time>
      </trkpt>
      <trkpt lat="49.4026" lon="1.46994">
        <ele>138</ele>
        <time>2018-10-16T14:45:33Z</time>
      </trkpt>
      <trkpt lat="49.40218" lon="1.47104">
        <ele>123</ele>
        <time>2018-10-16T14:46:33Z</time>
      </trkpt>
      <trkpt lat="49.40185" lon="1.47261">
        <ele>105</ele>
        <time>2018-10-16T14:47:33Z</time>
      </trkpt>
      <trkpt lat="49.40125" lon="1.47324">
        <ele>89</ele>
        <time>2018-10-16T14:48:33Z</time>
      </trkpt>
      <trkpt lat="49.39926" lon="1.47346">
        <ele>93</ele>
        <time>2018-10-16T14:49:33Z</time>
      </trkpt>
      <trkpt lat="49.39889" lon="1.47295">
        <ele>94</ele>
        <time>2018-10-16T14:50:33Z</time>
      </trkpt>
      <trkpt lat="49.39905" lon="1.47391">
        <ele>96</ele>
        <time>2018-10-16T14:51:33Z</time>
      </trkpt>
      <trkpt lat="49.39929" lon="1.47425">
        <ele>96</ele>
        <time>2018-10-16T14:52:33Z</time>
      </trkpt>
      <trkpt lat="49.39965" lon="1.47503">
        <ele>97</ele>
        <time>2018-10-16T14:53:33Z</time>
      </trkpt>
      <trkpt lat="49.39979" lon="1.47608">
        <ele>100</ele>
        <time>2018-10-16T14:54:33Z</time>
      </trkpt>
      <trkpt lat="49.39932" lon="1.47656">
        <ele>105</ele>
        <time>2018-10-16T14:55:33Z</time>
      </trkpt>
      <trkpt lat="49.39872" lon="1.47671">
        <ele>107</ele>
        <time>2018-10-16T14:56:33Z</time>
      </trkpt>
      <trkpt lat="49.3993" lon="1.47783">
        <ele>105</ele>
        <time>2018-10-16T14:57:33Z</time>
      </trkpt>
      <trkpt lat="49.40059" lon="1.47593">
        <ele>93</ele>
        <time>2018-10-16T14:58:33Z</time>
      </trkpt>
      <trkpt lat="49.40105" lon="1.47644">
        <ele>92</ele>
        <time>2018-10-16T14:59:33Z</time>
      </trkpt>
      <trkpt lat="49.40166" lon="1.47848">
        <ele>89</ele>
        <time>2018-10-16T15:00:33Z</time>
      </trkpt>
      <trkpt lat="49.40342" lon="1.47782">
        <ele>96</ele>
        <time>2018-10-16T15:01:33Z</time>
      </trkpt>
      <trkpt lat="49.40437" lon="1.48231">
        <ele>98</ele>
        <time>2018-10-16T15:02:33Z</time>
      </trkpt>
      <trkpt lat="49.40488" lon="1.48325">
        <ele>93</ele>
        <time>2018-10-16T15:03:33Z</time>
      </trkpt>
      <trkpt lat="49.40597" lon="1.48554">
        <ele>94</ele>
        <time>2018-10-16T15:04:33Z</time>
      </trkpt>
      <trkpt lat="49.41121" lon="1.49499">
        <ele>95</ele>
        <time>2018-10-16T15:05:33Z</time>
      </trkpt>
      <trkpt lat="49.41096" lon="1.49554">
        <ele>93</ele>
        <time>2018-10-16T15:06:33Z</time>
      </trkpt>
      <trkpt lat="49.41104" lon="1.49613">
        <ele>94</ele>
        <time>2018-10-16T15:07:33Z</time>
      </trkpt>
      <trkpt lat="49.41151" lon="1.49698">
        <ele>96</ele>
        <time>2018-10-16T15:08:33Z</time>
      </trkpt>
      <trkpt lat="49.41229" lon="1.49772">
        <ele>95</ele>
        <time>2018-10-16T15:09:33Z</time>
      </trkpt>
      <trkpt lat="49.4129" lon="1.49875">
        <ele>98</ele>
        <time>2018-10-16T15:10:33Z</time>
      </trkpt>
    </trkseg>
  </trk>
</gpx>